DW0307 Weather Reports


time (UTC)temp
F
wind
direction
speed
knots
gust
knots
rain 1hr
in
rain 24hr
in
rain mn
in
humidity
%
barometer
mb
20260903091607 71 89 2.6 7.0 0.00 0.03 0.03 56 1020.6
20260903090058 72 221 0.0 4.3 0.00 0.03 0.03 60 1020.6
20260903084554 68 304 0.9 5.2 0.00 0.03 0.03 67 1020.7
20260903083109 66 124 0.0 3.5 0.00 0.03 0.03 69 1020.8
20260903081601 65 113 0.0 1.7 0.00 0.03 0.03 72 1020.7
20260903080047 63 113 0.0 3.5 0.00 0.03 0.03 74 1020.8
20260903074553 63 133 0.9 3.5 0.00 0.03 0.03 73 1020.7
20260903073115 63 0 0.0 2.6 0.00 0.03 0.03 74 1020.6
20260903071553 62 134 1.7 3.5 0.00 0.03 0.03 76 1020.8
20260903070108 62 0 0.0 3.5 0.00 0.03 0.03 73 1020.8
20260903064556 63 231 2.6 4.3 0.00 0.03 0.03 73 1020.8
20260903063100 61 236 2.6 6.1 0.00 0.03 0.03 78 1020.9
20260903061603 59 266 0.0 7.0 0.00 0.03 0.03 80 1020.9
20260903060058 58 269 7.0 9.6 0.00 0.03 0.03 81 1020.7
20260903054555 58 197 2.6 6.1 0.00 0.03 0.03 83 1020.8
20260903053050 58 244 0.0 2.6 0.00 0.03 0.03 88 1020.8
20260903051601 55 244 0.0 1.7 0.00 0.03 0.03 89 1020.8
20260903050059 53 244 1.7 3.5 0.00 0.03 0.03 89 1020.7
20260903044551 51 0 1.7 5.2 0.00 0.03 0.03 89 1020.9
20260903043130 52 256 0.0 7.8 0.00 0.03 0.03 89 1021.0
20260903041556 51 261 9.6 12.2 0.00 0.03 0.03 89 1021.0
20260903040115 51 276 1.7 7.0 0.00 0.03 0.03 89 1020.9
20260903034548 51 230 1.7 3.5 0.03 0.03 0.03 89 1021.0
20260903033101 51 230 2.6 3.5 0.03 0.03 0.03 89 1021.0
20260903031554 50 261 0.0 7.0 0.03 0.03 0.03 89 1021.2
20260903030104 49 113 3.5 5.2 0.03 0.03 0.03 90 1020.9
20260903024601 46 286 3.5 6.1 0.00 0.00 0.00 89 1021.1
20260903023054 45 0 0.0 0.9 0.00 0.00 0.00 88 1020.7
20260903021552 45 0 0.9 3.5 0.00 0.00 0.00 88 1020.7
20260903020056 46 260 0.0 2.6 0.00 0.00 0.00 89 1020.8
20260903014557 43 0 0.0 2.6 0.00 0.00 0.00 88 1020.8
20260903013053 43 0 0.0 0.0 0.00 0.00 0.00 88 1020.9
20260903011557 44 259 1.7 2.6 0.00 0.00 0.00 87 1021.1
20260903010104 44 0 0.0 0.9 0.00 0.00 0.00 87 1021.3
20260903004619 44 0 0.0 2.6 0.00 0.00 0.00 87 1021.4
20260903003048 46 0 0.0 1.7 0.00 0.00 0.00 87 1021.5
20260903001555 46 259 1.7 2.6 0.00 0.00 0.00 87 1021.5
20260903000052 45 259 1.7 3.5 0.00 0.00 0.00 86 1021.4
20260902234549 47 0 0.0 2.6 0.00 0.00 0.00 86 1021.5
20260902233102 47 0 0.0 1.7 0.00 0.00 0.00 86 1021.5
20260902231552 47 0 0.0 1.7 0.00 0.00 0.00 86 1021.7
20260902230050 47 0 0.0 0.0 0.00 0.00 0.00 86 1021.7
20260902224554 47 0 0.0 0.9 0.00 0.00 0.00 86 1021.9
20260902223115 47 0 0.0 1.7 0.00 0.00 0.00 85 1021.8
20260902221554 48 0 0.0 1.7 0.00 0.00 0.00 85 1021.9
20260902220057 48 0 0.0 1.7 0.00 0.00 0.00 85 1022.0
20260902214604 48 0 0.0 1.7 0.00 0.00 0.00 84 1021.9
20260902213100 48 259 1.7 2.6 0.00 0.00 0.00 83 1021.9
20260902211556 50 0 0.0 0.0 0.00 0.00 0.00 83 1021.7
20260902210054 50 0 0.0 0.0 0.00 0.00 0.00 82 1021.8
20260902204637 51 0 0.0 0.0 0.00 0.00 0.00 82 1021.8
20260902203100 52 259 0.0 1.7 0.00 0.00 0.00 82 1021.6
20260902201554 53 0 0.0 1.7 0.00 0.00 0.00 82 1021.7
20260902200055 53 259 0.0 1.7 0.00 0.00 0.00 81 1021.7
20260902194549 54 259 0.9 2.6 0.00 0.00 0.00 82 1021.6
20260902193057 54 259 1.7 5.2 0.00 0.00 0.00 81 1021.8
20260902191553 54 254 0.9 3.5 0.00 0.00 0.00 79 1021.8
20260902190055 56 246 0.9 2.6 0.00 0.00 0.00 78 1021.8
20260902184548 57 246 0.0 2.6 0.00 0.00 0.00 78 1021.8
20260902183111 57 244 1.7 3.5 0.00 0.00 0.00 78 1021.7
20260902181602 58 244 0.9 3.5 0.00 0.00 0.00 75 1021.8
20260902180051 59 305 3.5 4.3 0.00 0.00 0.00 74 1021.6
20260902174551 60 303 2.6 4.3 0.00 0.00 0.00 71 1021.3
20260902173104 64 302 1.7 3.5 0.00 0.00 0.00 66 1021.3
20260902171606 65 57 3.5 5.2 0.00 0.00 0.00 63 1021.0
20260902170056 67 24 3.5 6.1 0.00 0.00 0.00 62 1021.1
20260902164602 68 50 3.5 7.8 0.00 0.00 0.00 56 1021.1
20260902163051 68 332 2.6 4.3 0.00 0.00 0.00 57 1021.1
20260902161551 69 58 1.7 4.3 0.00 0.00 0.00 55 1020.9
20260902160056 69 41 2.6 5.2 0.00 0.00 0.00 54 1021.1
20260902154555 69 81 4.3 7.8 0.00 0.00 0.00 52 1021.0
20260902153059 70 88 4.3 8.7 0.00 0.00 0.00 50 1021.0
20260902151549 71 32 3.5 8.7 0.00 0.00 0.00 48 1021.1
20260902144552 71 360 7.0 10.4 0.00 0.00 0.00 47 1021.1
20260902143053 72 46 2.6 8.7 0.00 0.00 0.00 45 1021.1
20260902141549 75 242 4.3 13.0 0.00 0.00 0.00 38 1021.0
20260902140100 73 232 5.2 11.3 0.00 0.00 0.00 40 1021.0
20260902134554 75 238 8.7 16.5 0.00 0.00 0.00 37 1021.1
20260902133105 75 249 7.0 13.0 0.00 0.00 0.00 36 1021.1
20260902131549 74 259 7.8 12.2 0.00 0.00 0.00 41 1021.1
20260902124553 76 294 7.0 13.0 0.00 0.00 0.00 38 1021.3
20260902123053 76 263 6.1 12.2 0.00 0.00 0.00 41 1021.5
20260902121558 75 224 3.5 14.8 0.00 0.00 0.00 41 1021.6
20260902120057 75 302 9.6 13.9 0.00 0.00 0.00 43 1021.8
20260902114554 71 288 7.0 12.2 0.00 0.00 0.00 49 1021.9
20260902113049 71 352 0.9 6.1 0.00 0.00 0.00 47 1021.9
20260902111551 70 0 1.7 4.3 0.00 0.00 0.00 49 1022.1
20260902104605 69 329 0.9 4.3 0.00 0.00 0.00 49 1022.2
20260902103105 70 76 2.6 5.2 0.00 0.00 0.00 46 1022.4
20260902101604 71 44 3.5 7.0 0.00 0.00 0.00 47 1022.5
20260902100053 69 121 0.9 4.3 0.00 0.00 0.00 48 1022.7
20260902094552 69 0 0.0 3.5 0.00 0.00 0.00 49 1022.8
20260902093057 68 249 0.0 3.5 0.00 0.00 0.00 53 1023.0